Wind_Speed
22 24 26 26 26 28 29 30 30 30 34 37 38 35 29 18 17 17 18 17 17 15 9 6 6 7 8 10 12 12 13 13 13 13 14 15 16 18 19 21 22 25 29 29 29
21 22 25 25 25 27 29 30 29 29 29 32 35 35 31 27 18 17 17 18 20 20 18 14 10 8 8 8 10 11 13 13 13 14 14 16 18 19 21 22 22 23 26 30 33
22 21 23 25 25 26 28 30 30 28 27 28 29 31 31 29 26 22 18 18 19 19 19 17 15 12 8 8 8 9 10 11 12 13 14 16 18 20 21 22 24 24 26 29 31
24 22 23 24 24 25 27 29 29 29 27 24 25 26 27 28 27 25 21 19 18 18 17 16 15 13 12 10 9 8 9 10 12 14 15 15 15 17 18 19 21 22 24 26 28
25 25 23 23 24 24 25 28 29 28 27 26 23 24 23 23 22 25 24 22 19 17 16 15 14 14 13 12 11 10 10 11 12 12 12 13 14 15 16 16 18 19 19 20 22
27 26 24 22 23 24 24 26 28 28 27 27 24 23 23 22 20 20 21 21 21 18 17 16 15 14 15 14 12 12 12 13 13 14 14 14 13 13 14 15 16 18 18 19 20
28 28 26 23 21 23 25 25 26 27 26 26 25 23 22 22 20 18 18 21 21 22 21 20 18 16 15 17 18 17 15 15 15 15 16 16 16 16 16 15 16 17 17 20 22
27 29 28 25 21 23 24 24 25 26 27 26 27 25 23 22 21 19 18 17 20 21 22 21 20 20 18 17 17 17 18 17 18 19 19 17 19 19 20 20 20 19 20 22 24
23 27 28 26 23 23 24 26 25 26 27 26 26 26 24 23 22 20 17 17 18 19 20 21 22 21 22 20 18 18 18 18 18 19 20 20 25 20 19 21 22 19 21 23 25
22 24 27 26 24 23 23 24 24 24 26 25 25 25 25 26 24 22 20 19 17 19 20 22 23 22 23 23 21 19 19 20 20 19 20 21 22 28 22 22 22 24 24 26 28
23 23 26 27 25 23 22 22 23 23 25 26 27 27 26 26 25 24 22 21 21 20 20 21 22 23 24 26 26 24 23 20 22 24 21 26 23 25 26 25 27 30 32 32 31
25 22 24 26 25 23 22 22 22 24 24 26 27 27 27 27 26 25 25 24 22 22 21 22 22 24 26 26 28 28 26 26 23 26 27 27 25 29 29 30 31 32 31 31 33
27 23 24 25 26 26 24 23 25 25 24 22 25 27 28 28 26 26 24 25 24 23 23 24 24 26 26 28 28 29 29 30 29 24 25 29 30 29 32 33 34 34 33 33 31
30 27 25 25 27 28 26 26 26 27 26 26 27 27 28 28 25 25 26 25 25 25 25 25 27 28 28 28 30 30 32 31 31 32 29 26 30 26 29 32 32 33 34 33 32
30 29 25 26 27 28 28 27 26 28 30 27 27 29 28 27 27 26 27 27 27 28 28 27 29 30 29 30 30 32 33 35 32 33 31 29 30 27 27 29 30 33 34 35 35
32 27 28 28 29 28 28 28 28 26 26 26 27 28 28 28 28 28 29 29 28 28 29 28 30 30 30 31 31 32 34 37 37 33 33 32 30 23 25 30 31 32 34 35 35
32 29 28 29 29 28 30 30 26 27 28 28 29 28 27 28 28 28 29 30 32 31 30 30 29 31 31 31 31 32 35 36 38 38 35 33 35 28 27 30 30 31 31 34 35
31 31 29 27 30 31 31 29 28 29 28 30 29 29 27 29 28 27 28 29 31 33 33 31 30 31 32 32 33 34 35 36 39 40 39 35 34 29 25 28 30 30 32 36 37
32 30 30 31 31 29 28 31 31 31 33 33 32 31 29 30 31 29 28 29 30 31 34 36 31 31 32 34 34 35 34 37 39 40 42 40 39 33 27 30 32 33 34 35 37
35 32 32 32 29 29 31 32 32 33 36 36 37 34 33 33 32 30 28 30 31 32 35 37 35 32 34 35 35 36 37 38 40 43 44 41 40 37 30 29 33 38 38 38 39
34 34 32 29 31 29 30 34 37 36 37 39 37 37 35 34 32 31 30 35 33 34 35 36 37 35 36 37 37 38 39 39 41 44 47 44 39 39 37 35 36 37 38 36 35
36 32 33 33 32 32 33 32 35 36 38 39 38 37 39 37 35 34 34 35 36 36 36 35 36 37 37 38 39 40 40 40 44 45 46 45 40 40 35 36 40 39 37 35 37
38 38 35 33 34 36 37 36 36 36 37 39 38 38 40 37 39 36 37 37 39 39 39 38 39 41 40 40 42 41 42 43 46 44 42 46 41 39 42 41 36 36 36 33 31
41 42 39 36 36 37 40 39 39 41 39 40 38 38 39 39 39 40 39 38 39 38 39 41 40 41 40 40 41 41 43 44 45 44 44 44 43 39 40 39 36 36 36 32 30
44 46 43 38 39 37 42 40 39 41 40 39 40 38 38 41 40 41 40 37 38 39 40 42 40 39 41 41 42 43 46 46 45 45 45 37 40 37 34 34 34 32 29 28 29
45 45 45 38 41 40 43 42 40 40 40 39 42 43 41 40 40 43 43 40 37 39 41 41 38 39 41 42 44 45 46 47 44 42 41 40 38 36 32 32 31 30 27 27 23
44 47 46 39 41 44 42 42 40 39 40 39 40 41 41 43 43 40 37 37 38 38 39 39 41 43 43 43 44 46 47 45 45 41 38 38 36 34 32 30 31 27 28 29 24
Wind_Direction
13 14 17 16 16 18 19 20 21 22 24 22 24 31 37 45 45 37 41 42 35 34 15 320 300 304 300 283 272 270 271 270 270 268 266 262 261 261 260 259 259 253 253 249 248
9 9 15 17 15 18 19 20 20 22 23 27 24 25 31 37 40 34 32 32 32 31 27 21 4 320 307 305 293 286 283 282 280 279 277 273 269 266 265 263 261 257 256 254 251
6 6 11 16 14 16 18 19 20 19 23 25 28 26 25 29 33 33 21 17 15 21 22 19 13 1 345 317 303 304 303 299 295 288 282 278 275 273 269 265 263 258 254 254 253
10 5 4 10 13 13 16 17 20 18 19 21 25 29 28 25 26 30 28 19 8 6 8 13 15 6 1 340 330 324 317 311 306 301 296 292 286 280 278 273 268 263 259 257 257
10 8 2 5 9 11 13 15 17 16 15 17 16 21 29 30 24 27 25 22 20 7 357 359 360 356 356 349 338 323 313 308 307 308 307 303 299 292 287 286 282 278 275 267 264
10 12 5 3 4 8 10 13 13 15 12 12 13 14 16 21 18 22 23 20 17 14 4 352 345 340 334 331 327 325 322 306 296 293 295 300 300 300 299 297 289 284 283 279 274
3 6 6 3 1 4 4 6 10 11 11 8 9 13 12 14 13 7 11 14 13 9 7 360 357 348 341 331 324 318 312 307 307 305 297 287 285 287 285 286 287 291 287 284 281
352 357 2 2 2 4 1 359 3 5 8 6 4 5 9 9 5 4 1 355 1 2 5 357 352 347 340 336 328 321 314 310 305 302 299 296 292 293 291 283 278 276 275 276 277
346 348 356 358 358 358 359 359 0 2 5 5 2 1 2 3 2 359 355 347 340 342 349 353 347 345 341 334 330 325 317 313 306 302 303 302 297 290 287 283 281 277 276 276 276
342 342 345 352 353 354 355 359 1 1 1 2 0 359 358 358 357 354 347 343 340 331 332 335 339 338 335 332 329 324 318 313 307 303 301 296 289 289 287 280 281 281 280 280 279
335 338 341 345 348 349 355 358 1 359 356 358 358 357 354 352 352 348 344 338 338 341 331 327 328 329 329 326 324 323 319 310 303 300 294 293 289 288 289 286 287 288 289 287 280
330 333 336 337 343 346 349 352 357 356 357 359 355 353 350 346 346 347 342 339 337 331 329 326 326 325 323 324 324 323 324 321 310 304 300 287 282 285 285 286 286 286 287 289 289
329 328 330 332 334 336 341 346 352 353 351 354 353 348 343 341 343 338 339 337 333 327 327 328 324 322 325 322 321 321 322 320 318 311 305 301 290 284 283 282 283 283 285 289 288
326 325 326 328 329 331 334 338 342 346 347 348 349 343 341 335 336 333 332 332 331 325 327 326 322 318 321 319 319 318 317 316 317 316 315 307 303 297 286 282 280 280 280 284 283
321 320 325 326 326 326 327 331 334 337 339 340 341 337 335 332 330 332 329 329 329 327 328 324 322 320 320 317 316 315 315 314 313 315 317 314 306 305 294 285 280 277 279 279 281
318 315 315 321 323 321 320 323 327 329 331 334 335 335 331 328 328 330 329 328 327 326 322 326 322 319 316 313 313 314 315 314 314 316 316 315 314 313 297 290 286 281 278 279 284
313 318 313 314 316 316 316 318 321 324 325 327 330 333 327 323 323 326 326 327 326 324 322 320 318 315 312 311 312 314 314 313 314 316 319 320 316 317 307 294 289 281 275 278 281
309 313 314 311 311 313 315 314 317 320 321 325 327 324 317 316 319 320 324 324 322 319 316 315 312 312 312 312 311 314 314 315 316 318 318 318 318 320 309 299 292 281 276 276 277
305 308 310 310 310 312 313 315 318 318 319 322 322 319 314 312 315 319 318 316 316 315 312 313 313 314 313 311 311 313 313 314 313 314 315 318 319 315 308 293 283 282 278 274 276
302 304 306 306 307 311 314 316 315 314 316 318 318 316 313 313 313 311 315 316 314 312 312 314 314 316 313 311 310 312 315 314 314 314 314 319 317 311 313 294 288 284 281 277 278
298 301 302 301 301 305 310 313 312 311 313 314 315 313 311 309 311 312 315 313 311 309 310 312 314 317 313 312 312 315 313 311 311 312 313 317 316 313 309 302 294 287 286 283 281
295 297 297 297 298 300 305 306 305 305 308 309 309 308 309 310 312 312 311 309 308 306 308 311 312 313 311 310 312 314 311 311 309 311 313 312 318 312 306 293 287 293 293 284 280
295 295 292 292 294 298 300 301 301 304 305 305 306 308 308 307 307 309 309 308 307 309 311 311 312 312 311 312 314 313 311 308 308 312 316 307 319 304 298 305 300 291 288 285 287
293 292 291 291 294 297 299 302 303 304 304 304 306 308 308 307 309 309 306 307 308 309 307 308 310 311 311 311 311 310 309 309 311 313 311 317 307 304 308 306 300 293 293 290 287
291 289 288 290 291 292 295 296 298 300 301 302 305 306 306 307 308 306 304 304 303 303 303 304 308 307 311 310 308 309 310 312 312 313 313 312 311 311 310 306 301 300 297 288 283
281 283 286 289 291 290 292 294 297 296 298 303 305 307 308 308 309 308 303 300 302 304 303 304 305 308 311 306 307 309 311 312 313 312 314 314 312 311 311 304 300 296 291 292 287
281 282 284 286 285 288 288 289 291 292 296 301 303 304 306 304 304 303 302 303 305 306 306 306 306 307 308 306 307 308 313 315 314 315 315 314 311 308 306 301 299 295 288 289 278
Height
5842 5839 5835 5832 5827 5823 5819 5815 5810 5805 5799 5794 5788 5783 5779 5776 5774 5772 5771 5771 5768 5768 5766 5765 5765 5765 5765 5765 5765 5765 5765 5765 5766 5766 5767 5767 5766 5766 5768 5768 5768 5769 5770 5771 5771
5843 5840 5837 5834 5829 5825 5821 5817 5813 5807 5803 5798 5793 5789 5784 5780 5777 5776 5775 5772 5770 5769 5766 5765 5765 5765 5764 5764 5764 5764 5763 5763 5763 5764 5764 5763 5763 5763 5763 5763 5764 5764 5765 5765 5765
5844 5841 5838 5834 5831 5827 5823 5819 5815 5811 5806 5801 5797 5792 5789 5786 5783 5779 5777 5776 5772 5771 5769 5767 5766 5765 5764 5763 5762 5762 5761 5761 5761 5761 5761 5760 5760 5759 5759 5758 5758 5759 5759 5759 5759
5845 5842 5839 5835 5832 5829 5825 5821 5816 5813 5809 5804 5799 5795 5792 5789 5787 5782 5778 5775 5774 5773 5770 5768 5767 5765 5764 5763 5762 5761 5760 5760 5759 5759 5758 5758 5757 5755 5754 5754 5753 5753 5753 5753 5752
5846 5843 5839 5836 5833 5830 5826 5822 5818 5814 5811 5806 5802 5799 5794 5791 5788 5784 5780 5777 5774 5773 5770 5768 5767 5766 5764 5762 5761 5760 5759 5758 5757 5756 5755 5754 5753 5753 5752 5751 5750 5749 5748 5748 5747
5846 5843 5840 5836 5833 5830 5827 5823 5819 5815 5812 5808 5803 5800 5798 5794 5790 5786 5782 5778 5775 5773 5771 5769 5767 5765 5763 5761 5759 5757 5756 5755 5754 5753 5752 5751 5751 5749 5749 5748 5747 5746 5745 5744 5743
5845 5842 5839 5836 5833 5830 5827 5823 5819 5816 5812 5809 5805 5802 5798 5796 5791 5786 5785 5781 5777 5775 5773 5769 5768 5765 5762 5760 5758 5757 5754 5752 5751 5750 5749 5748 5748 5746 5745 5744 5743 5743 5741 5739 5739
5845 5842 5839 5836 5833 5831 5827 5823 5820 5816 5812 5810 5806 5803 5800 5796 5791 5788 5785 5782 5778 5775 5773 5769 5766 5764 5761 5758 5756 5753 5752 5750 5748 5747 5746 5745 5744 5743 5742 5740 5739 5738 5737 5736 5735
5844 5841 5838 5836 5833 5830 5827 5823 5820 5817 5813 5809 5806 5802 5800 5795 5791 5787 5784 5780 5778 5774 5771 5768 5765 5762 5759 5756 5753 5750 5748 5746 5745 5742 5741 5741 5737 5739 5737 5735 5734 5733 5732 5730 5729
5844 5840 5837 5834 5832 5829 5826 5823 5819 5816 5812 5808 5805 5803 5798 5795 5791 5787 5783 5779 5775 5773 5770 5767 5763 5760 5757 5753 5750 5748 5746 5743 5741 5740 5737 5735 5734 5730 5731 5731 5729 5727 5726 5725 5724
5842 5839 5836 5833 5830 5827 5824 5821 5820 5816 5812 5808 5805 5801 5797 5793 5789 5785 5782 5778 5774 5771 5768 5764 5761 5758 5755 5751 5747 5744 5743 5740 5737 5735 5734 5730 5729 5727 5725 5724 5723 5721 5720 5718 5716
5840 5837 5834 5831 5828 5826 5822 5819 5816 5814 5811 5806 5803 5799 5795 5791 5788 5783 5780 5778 5773 5769 5765 5763 5759 5756 5752 5748 5745 5741 5739 5737 5734 5731 5730 5726 5725 5722 5720 5718 5716 5714 5713 5710 5708
5837 5835 5832 5829 5825 5823 5820 5818 5814 5811 5808 5804 5800 5796 5793 5789 5785 5780 5777 5773 5770 5765 5762 5759 5757 5752 5749 5745 5741 5737 5735 5731 5729 5725 5723 5720 5718 5716 5713 5711 5709 5706 5704 5702 5701
5833 5831 5829 5827 5825 5820 5817 5815 5811 5808 5806 5803 5798 5795 5791 5786 5782 5777 5773 5770 5766 5763 5759 5756 5752 5748 5746 5741 5738 5734 5730 5726 5723 5720 5717 5715 5712 5710 5706 5704 5701 5699 5696 5694 5692
5830 5828 5825 5823 5821 5819 5815 5811 5808 5805 5802 5800 5794 5791 5787 5784 5779 5775 5770 5766 5763 5760 5758 5752 5747 5744 5740 5737 5733 5730 5725 5721 5716 5715 5712 5709 5706 5704 5699 5696 5693 5690 5688 5685 5683
5825 5823 5821 5819 5816 5814 5811 5807 5805 5802 5797 5795 5792 5787 5783 5779 5775 5771 5767 5763 5758 5755 5751 5748 5743 5738 5734 5731 5727 5724 5720 5717 5713 5710 5708 5704 5701 5699 5694 5689 5685 5682 5680 5677 5675
5821 5818 5816 5814 5811 5808 5806 5803 5801 5797 5794 5791 5786 5783 5779 5775 5770 5766 5762 5759 5755 5750 5747 5743 5738 5734 5729 5726 5722 5718 5714 5710 5707 5703 5701 5698 5694 5692 5687 5682 5678 5675 5672 5670 5666
5815 5814 5811 5808 5806 5804 5801 5799 5796 5793 5789 5785 5781 5777 5772 5770 5766 5761 5757 5753 5748 5743 5739 5736 5733 5728 5723 5720 5716 5713 5708 5704 5699 5698 5695 5692 5688 5685 5680 5675 5671 5667 5663 5659 5656
5809 5807 5806 5803 5801 5799 5797 5794 5791 5787 5784 5780 5776 5772 5769 5765 5760 5756 5751 5745 5741 5737 5734 5728 5727 5723 5718 5714 5711 5707 5702 5698 5693 5690 5686 5685 5679 5675 5673 5667 5662 5658 5653 5650 5647
5804 5802 5800 5798 5796 5794 5792 5789 5785 5782 5778 5775 5771 5767 5763 5759 5755 5749 5744 5740 5736 5732 5727 5723 5721 5719 5713 5709 5705 5701 5697 5692 5686 5680 5676 5676 5670 5665 5663 5658 5653 5648 5645 5643 5641
5799 5796 5794 5791 5790 5787 5784 5782 5780 5776 5773 5770 5765 5761 5757 5752 5748 5745 5740 5735 5730 5725 5721 5717 5715 5713 5707 5701 5697 5695 5689 5684 5679 5672 5666 5664 5665 5655 5653 5648 5642 5638 5636 5635 5633
5793 5790 5788 5786 5784 5781 5777 5773 5771 5768 5765 5762 5758 5753 5751 5748 5742 5739 5734 5728 5723 5718 5714 5712 5707 5703 5699 5693 5689 5685 5679 5674 5669 5667 5659 5654 5655 5648 5643 5637 5631 5631 5628 5626 5623
5787 5784 5780 5777 5777 5774 5771 5767 5764 5761 5758 5754 5750 5746 5744 5741 5735 5731 5726 5721 5717 5714 5709 5705 5701 5696 5691 5688 5682 5677 5671 5665 5659 5657 5655 5643 5646 5635 5630 5628 5625 5621 5619 5617 5615
5779 5778 5776 5772 5769 5767 5765 5761 5759 5757 5753 5747 5743 5739 5737 5734 5727 5724 5718 5713 5709 5706 5701 5696 5693 5689 5685 5678 5673 5669 5663 5655 5651 5647 5643 5636 5630 5627 5623 5619 5616 5612 5610 5609 5607
5769 5770 5767 5764 5761 5757 5756 5753 5750 5749 5745 5740 5736 5732 5729 5726 5721 5717 5711 5705 5699 5695 5690 5687 5684 5680 5676 5672 5666 5662 5655 5649 5643 5637 5632 5631 5620 5617 5614 5610 5607 5604 5602 5601 5599
5759 5760 5759 5755 5753 5750 5747 5746 5743 5740 5736 5732 5728 5725 5721 5718 5713 5708 5704 5698 5692 5687 5682 5678 5674 5671 5668 5661 5656 5652 5646 5641 5636 5630 5624 5620 5615 5609 5605 5601 5599 5596 5595 5594 5592
5749 5748 5747 5745 5743 5741 5739 5735 5733 5730 5728 5723 5719 5715 5711 5707 5703 5699 5696 5692 5686 5680 5674 5670 5665 5662 5660 5653 5647 5642 5636 5630 5625 5621 5616 5611 5607 5601 5596 5594 5591 5589 5587 5586 5585